Location: *
(51.5000°N, 0.1100°W)
Time: 19:11:14
(UTC+00:00)

Lacrosse 5 rocket - Pass Details

Date: 25 May 2024
Orbit: 445 x 572 km, 57.0° (Epoch: 23 June)

Event Time Altitude Azimuth Distance (km) Brightness Sun altitude
Rises 00:42:34 0° 299° (WNW) 2,755 5.1 -16.8°
Reaches altitude 10° 00:44:51 10° 298° (WNW) 1,841 4.2 -16.7°
Maximum altitude 00:49:00 71° 214° (SW) 575 1.2 -16.6°
Enters shadow 00:52:30 13° 132° (SE) 1,577 3.4 -16.5°
